Wind from 030 at 11 knots

Air temperature 8.0° C
Visibility: greater than 5.4 NM
Dewpoint -12.0° C

Last reported at 2014-Apr-23 16:50 UTC.
Time now 2014-Apr-23 19:05 UTC

Location: N 58°18' E 026°44'.
View on Google Maps.

See reports from other nearby stations

Tides Stations Pressure Air Temp Water Temp Dewpoint Dewpoint depression Visibility Wind Speed Wind Dir Waves Ship positions

  
sailing weather and tide predictions

TARTU/ULENURME weather

date/time (UTC)wind fromknots sea level pressurealtimeterstation pressurevisibilityair tempwater tempwave heightnotes
2014-Apr-23 16:50 030 11 5.4 8.0
2014-Apr-23 15:50 010 13 9.0
2014-Apr-23 14:50 030 12 10.0
2014-Apr-23 13:50 020 12 10.0
2014-Apr-23 12:50 030 12 10.0
2014-Apr-23 11:50 040 11 10.0
2014-Apr-23 10:50 020 12 10.0
2014-Apr-23 09:50 020 11 10.0
2014-Apr-23 08:50 040 11 10.0
2014-Apr-23 07:50 040 13 10.0
2014-Apr-23 06:50 040 10 9.0
2014-Apr-23 05:50 030 11 8.0
2014-Apr-23 04:50 030 10 7.0
2014-Apr-23 03:50 020 6 7.0
2014-Apr-23 02:50 020 6 5.4 7.0
2014-Apr-23 01:50 020 6 5.4 7.0
2014-Apr-23 00:50 010 8 5.4 8.0
2014-Apr-22 23:50 360 7 5.4 9.0
2014-Apr-22 22:50 360 5 5.410.0
2014-Apr-22 21:50 340 6 5.410.0
2014-Apr-22 20:50 330 4 5.4 8.0
2014-Apr-22 19:50 360 4 5.412.0
2014-Apr-22 18:50 020 3 5.414.0
2014-Apr-22 17:50 040 6 5.415.0
2014-Apr-22 15:50 040 9 19.0
2014-Apr-22 14:50 030 10 gusting 20 20.0
2014-Apr-22 13:50 030 8 20.0
2014-Apr-22 12:50 350 11 21.0
2014-Apr-22 11:50 350 9 20.0
2014-Apr-22 10:50 360 8 20.0
2014-Apr-22 09:50 020 7 19.0
2014-Apr-22 08:50 030 9 18.0
2014-Apr-22 07:50 030 7 17.0
2014-Apr-22 06:50 040 7 15.0
2014-Apr-22 05:50 030 6 12.0
2014-Apr-22 04:50 080 3 5.4 9.0
2014-Apr-22 03:50 010 3 5.4 7.0
2014-Apr-22 02:50 5.4 5.0
2014-Apr-22 01:50 320 3 5.4 6.0
2014-Apr-22 00:50 5.4 7.0
2014-Apr-21 23:50 5.4 8.0
2014-Apr-21 22:50 360 2 5.410.0
2014-Apr-21 21:50 050 2 5.411.0
2014-Apr-21 20:50 030 5 5.412.0
2014-Apr-21 19:50 050 5 5.413.0